Regional Weather Roundup
Issued by NWS Charleston, SC

Current Version | Previous Version | Graphics & Text | Print | Product List | Glossary On
Versions: 1 2 3 4 5 6 7 8 9 10 11 12 13 14 15 16 17 18 19 20 21 22 23 24 25 26 27 28 29 30 31 32 33 34 35 36 37 38 39 40 41 42 43 44 45 46 47 48 49 50
000 ASUS42 KCHS 231727 RWRCHS REGIONAL WEATHER ROUNDUP NATIONAL WEATHER SERVICE CHARLESTON SC 100 PM EDT SUN APR 23 2017 NOTE: "FAIR" INDICATES FEW OR NO CLOUDS BELOW 12,000 FEET WITH NO SIGNIFICANT WEATHER AND/OR OBSTRUCTIONS TO VISIBILITY. NOT ALL STATIONS ARE QUALITY CONTROLLED. USE DATA WITH CAUTION... ESPECIALLY DEWPOINT OBSERVATIONS. SCZ027-030-031-034>040-042>050-231800- ...SOUTHEAST SOUTH CAROLINA... CITY SKY/WX TMP DP RH WIND PRES REMARKS N CHARLESTON MOSUNNY 81 68 64 S12G20 29.86F WATERFRONT PRK N/A 76 70 81 S13 29.85F JOHNS ISLAND CLOUDY 79 72 78 S13 29.87S PINOPOLIS N/A 75 70 83 N6 29.79F MONCKS CORNER PTSUNNY 81 66 61 CALM 29.84F SUMMERVILLE FAIR 82 64 54 S7 29.85F BEAUFORT MCAS SUNNY 86 71 60 SE7 29.84F HX 91 BEAUFORT ARPT FAIR 81 68 65 S9 29.84F HILTON HEAD IS MOSUNNY 79 70 73 S14 29.86F WALTERBORO MOSUNNY 86 63 45 S7 29.84F ALLENDALE PTSUNNY 84 63 48 S9 29.81F ...SOUTHERN MIDLANDS AND PEE DEE... CITY SKY/WX TMP DP RH WIND PRES REMARKS GEORGETOWN CLOUDY 72 68 88 E10 29.88F KINGSTREE CLOUDY 72 61 68 NE8 29.88F ORANGEBURG MOSUNNY 82 64 54 SE6 29.84F BARNWELL PTSUNNY 84 64 51 VRB7 29.82F AIKEN FAIR 77 63 61 NE12 29.86F MANNING FAIR 77 64 65 E10G28 29.86F COLUMBIA CLOUDY 69 59 70 NE9G16 29.88F SUMTER CLOUDY 68 59 74 NE13G18 29.87F FLORENCE CLOUDY 65 58 78 E12 29.93F MYRTLE BEACH PTSUNNY 70 63 78 NE20 29.93F N MYRTLE BEACH CLOUDY 69 64 84 E13 29.91F $$ GAZ063-065-086>088-099>101-113>116-118-119-134>141-150-231800- ...SOUTHEAST GEORGIA... CITY SKY/WX TMP DP RH WIND PRES REMARKS SAVANNAH ARPT PTSUNNY 87 61 41 S12 29.83F HUNTER AAF SUNNY 85 72 66 SE10 29.81F HX 91 FORT STEWART MOSUNNY 85 62 45 S10 29.81F STATESBORO MOSUNNY 86 60 41 SW9G16 29.82F SYLVANIA PTSUNNY 86 63 45 SW6 29.83F CLAXTON FAIR 83 65 55 S3 29.82F ...CSRA...CENTRAL AND FAR SOUTHEAST GEORGIA... CITY SKY/WX TMP DP RH WIND PRES REMARKS THOMSON CLOUDY 77 61 57 W5 29.86F AUGUSTA-BUSH CLOUDY 84 66 54 VRB5 29.81F AUGUSTA-DANIEL MOSUNNY 80 61 52 SE10 29.83F SWAINSBORO PTSUNNY 81 59 47 S7 29.82F VIDALIA MOSUNNY 84 61 45 S9G18 29.82F EASTMAN PTSUNNY 83 43 24 SW7G17 29.84F HAZLEHURST FAIR 84 63 49 SW16 29.81F ALMA MOSUNNY 84 62 47 S13G18 29.83F WAYCROSS PTSUNNY 87 66 50 SW10 29.82F JESUP PTSUNNY 86 57 37 S8 29.82F BAXLEY FAIR 84 64 51 SW7G16 29.82F BRUNSWICK MOSUNNY 88 64 45 S6 29.84F SAINT SIMONS MOSUNNY 81 62 52 SE12G22 29.85F $$ SCZ027-028-034-036>038-045-046-048>050-GAZ119-141-231800- ...LAKE AND SUPPLEMENTAL COASTAL OBSERVATIONS... STATION/POSITION TIME TEMP WIND PRES WAVE SWELL AIR SEA DIR/SP/G HT/PER HT/PER/DIR (UTC) (F) (DEG/KT/KT) (MB) (FT/S) (FT/S/D) WINYAH BAY 1630 67 20/ 8 1012.0F LAKE MURRAY 1650 62 40/ 6/ 9 1011.9F ACE BASIN NERRS 1630 81 140/ 4 1011.0S FORT PULASKI 1700 78 75 160/ 8/ 11 1011.0 SAPELO ISLAND 1630 84 170/ 8 1011.0S $$ ANZ835-935-AMZ111-154-330-350-352-354-370-450-454-472-231800- ...C-MAN AND BUOY OBSERVATIONS... STATION/POSITION TIME TEMP WIND PRES WAVE SWELL AIR SEA DIR/SP/G HT/PER HT/PER/DIR (UTC) (F) (DEG/KT/KT) (MB) (FT/S) (FT/S/D) BUOY 41004 1710 75 75 190/ 8/ 10 1011.8 BUOY 41008 1650 72 73 150/ 6/ 8 1011.2F 3/12 3/ 70/12 FOLLY BEACH CMAN 1700 76 180/ 10/ 12 1012.2F CAPERS NEARSHORE 1708 74 73 190/ 10/ 14 1011.5F FRIPP NEARSHORE 1708 73 75 170/ 8/ 12 1010.9F STATION/POSITION TIME TEMP WIND PRES WAVE SWELL AIR SEA DIR/SP/G HT/PER HT/PER/DIR (UTC) (F) (DEG/KT/KT) (MB) (FT/S) (FT/S/D) 5E ST. MARYS GA 1700 74 N/A 2/13 2/ 90/13 FRYING PAN BUOY 1710 73 74 70/ 12/ 14 1012.6 BUOY 41025 1650 65 74 20/ 17/ 21 1014.8F 5/ 7 2/ 50/11 CAPE LOOKOUT NC 1700 63 50/ 18/ 19 1014.7F BUOY 41002 1650 73 75 170/ 10/ 12 1015.3F 4/11 3/ 40/11 BUOY 41010 1710 76 78 150/ 14/ 16 1012.4 ST AUGUSTINE FL 1700 74 76 130/ 11/ 12 1012.3F $$

USA.gov is the U.S. government's official web portal to all federal, state and local government web resources and services.